Time,TemperatureF,DewpointF,PressureIn,WindDirection,WindDirectionDegrees,WindSpeedMPH,WindSpeedGustMPH,Humidity,HourlyPrecipIn,Conditions,Clouds,dailyrainin,SolarRadiationWatts/m^2,SoftwareType,DateUTC
2013-01-25 00:01:00,35.0,35.0,-100.00,NE,45,0.0,1.0,99,-99.99,,,0.00,0.000000,,2013-01-25 08:01:00,
2013-01-25 00:11:00,35.0,35.0,-100.00,NE,45,0.0,1.0,99,-99.99,,,0.00,0.000000,,2013-01-25 08:11:00,
2013-01-25 00:41:00,32.0,32.0,-100.00,SSW,193,1.0,2.0,99,-99.99,,,0.00,0.000000,,2013-01-25 08:41:00,
2013-01-25 00:52:00,32.0,32.0,-100.00,SSW,193,1.0,2.0,99,-99.99,,,0.00,0.000000,,2013-01-25 08:52:00,
2013-01-25 01:01:00,32.0,32.0,-100.00,SSW,193,1.0,2.0,99,-99.99,,,0.00,0.000000,,2013-01-25 09:01:00,
2013-01-25 01:11:00,32.0,32.0,-100.00,SSW,193,1.0,2.0,99,-99.99,,,0.00,0.000000,,2013-01-25 09:11:00,
2013-01-25 01:41:00,32.0,32.0,-100.00,SE,135,0.0,1.0,99,-99.99,,,0.00,0.000000,,2013-01-25 09:41:00,
2013-01-25 01:52:00,32.0,32.0,-100.00,SE,135,0.0,1.0,99,-99.99,,,0.00,0.000000,,2013-01-25 09:52:00,
2013-01-25 02:01:00,32.0,32.0,-100.00,SE,135,0.0,1.0,99,-99.99,,,0.00,0.000000,,2013-01-25 10:01:00,
2013-01-25 02:11:00,32.0,32.0,-100.00,SE,135,0.0,1.0,99,-99.99,,,0.00,0.000000,,2013-01-25 10:11:00,
2013-01-25 02:42:00,33.0,33.0,-100.00,WNW,302,1.0,2.0,99,-99.99,,,0.00,0.000000,,2013-01-25 10:42:00,
2013-01-25 02:52:00,33.0,33.0,-100.00,WNW,302,1.0,2.0,99,-99.99,,,0.00,0.000000,,2013-01-25 10:52:00,
2013-01-25 03:02:00,33.0,33.0,-100.00,WNW,302,1.0,2.0,99,-99.99,,,0.00,0.000000,,2013-01-25 11:02:00,
2013-01-25 03:11:00,33.0,33.0,-100.00,WNW,302,1.0,2.0,99,-99.99,,,0.00,0.000000,,2013-01-25 11:11:00,
2013-01-25 03:42:00,33.0,33.0,-100.00,North,0,0.0,0.0,99,-99.99,,,0.00,0.000000,,2013-01-25 11:42:00,
2013-01-25 03:52:00,33.0,33.0,-100.00,North,0,0.0,0.0,99,-99.99,,,0.00,0.000000,,2013-01-25 11:52:00,
2013-01-25 04:02:00,33.0,33.0,-100.00,North,0,0.0,0.0,99,-99.99,,,0.00,0.000000,,2013-01-25 12:02:00,
2013-01-25 04:11:00,33.0,33.0,-100.00,North,0,0.0,0.0,99,-99.99,,,0.00,0.000000,,2013-01-25 12:11:00,
2013-01-25 06:12:00,30.0,30.0,-100.00,WNW,289,3.0,4.0,99,-99.99,,,0.00,0.000000,,2013-01-25 14:12:00,
2013-01-25 06:42:00,33.0,33.0,-100.00,WNW,291,0.0,2.0,99,-99.99,,,0.00,0.000000,,2013-01-25 14:42:00,
2013-01-25 06:53:00,33.0,33.0,-100.00,WNW,291,0.0,2.0,99,-99.99,,,0.00,0.000000,,2013-01-25 14:53:00,
2013-01-25 07:02:00,33.0,33.0,-100.00,WNW,291,0.0,2.0,99,-99.99,,,0.00,0.000000,,2013-01-25 15:02:00,
2013-01-25 07:11:00,33.0,33.0,-100.00,WNW,291,0.0,2.0,99,-99.99,,,0.00,0.000000,,2013-01-25 15:11:00,
2013-01-25 07:42:00,29.0,29.0,-100.00,ENE,72,0.0,1.0,99,-99.99,,,0.00,3.140000,,2013-01-25 15:42:00,
2013-01-25 07:53:00,29.0,29.0,-100.00,ENE,72,0.0,1.0,99,-99.99,,,0.00,3.140000,,2013-01-25 15:53:00,
2013-01-25 08:02:00,29.0,29.0,-100.00,ENE,72,0.0,1.0,99,-99.99,,,0.00,3.140000,,2013-01-25 16:02:00,
2013-01-25 08:11:00,29.0,29.0,-100.00,ENE,72,0.0,1.0,99,-99.99,,,0.00,3.140000,,2013-01-25 16:11:00,
2013-01-25 08:42:00,30.0,30.0,-100.00,WSW,237,2.0,4.0,99,-99.99,,,0.00,85.190002,,2013-01-25 16:42:00,
2013-01-25 08:53:00,30.0,30.0,-100.00,WSW,237,2.0,4.0,99,-99.99,,,0.00,85.190002,,2013-01-25 16:53:00,
2013-01-25 09:02:00,30.0,30.0,-100.00,WSW,237,2.0,4.0,99,-99.99,,,0.00,85.190002,,2013-01-25 17:02:00,
2013-01-25 09:11:00,30.0,30.0,-100.00,WSW,237,2.0,4.0,99,-99.99,,,0.00,85.190002,,2013-01-25 17:11:00,
2013-01-25 09:42:00,34.0,34.0,-100.00,West,273,2.0,5.0,99,-99.99,,,0.00,173.630005,,2013-01-25 17:42:00,
2013-01-25 09:53:00,34.0,34.0,-100.00,West,273,2.0,5.0,99,-99.99,,,0.00,173.630005,,2013-01-25 17:53:00,
2013-01-25 10:02:00,34.0,34.0,-100.00,West,273,2.0,5.0,99,-99.99,,,0.00,173.630005,,2013-01-25 18:02:00,
2013-01-25 10:11:00,34.0,34.0,-100.00,West,273,2.0,5.0,99,-99.99,,,0.00,173.630005,,2013-01-25 18:11:00,
2013-01-25 10:42:00,39.0,39.0,-100.00,West,280,3.0,5.0,99,-99.99,,,0.00,336.109985,,2013-01-25 18:42:00,
2013-01-25 10:52:00,39.0,39.0,-100.00,West,280,3.0,5.0,99,-99.99,,,0.00,336.109985,,2013-01-25 18:52:00,
2013-01-25 11:02:00,39.0,39.0,-100.00,West,280,3.0,5.0,99,-99.99,,,0.00,336.109985,,2013-01-25 19:02:00,
2013-01-25 11:12:00,39.0,39.0,-100.00,West,280,3.0,5.0,99,-99.99,,,0.00,336.109985,,2013-01-25 19:12:00,
2013-01-25 11:42:00,45.0,39.0,-100.00,West,259,2.0,5.0,81,-99.99,,,0.00,416.529999,,2013-01-25 19:42:00,
2013-01-25 11:53:00,45.0,39.0,-100.00,West,259,2.0,5.0,81,-99.99,,,0.00,416.529999,,2013-01-25 19:53:00,
2013-01-25 12:02:00,45.0,39.0,-100.00,West,259,2.0,5.0,81,-99.99,,,0.00,416.529999,,2013-01-25 20:02:00,
2013-01-25 12:11:00,45.0,39.0,-100.00,West,259,2.0,5.0,81,-99.99,,,0.00,416.529999,,2013-01-25 20:11:00,
2013-01-25 12:42:00,49.0,40.0,-100.00,NW,315,2.0,4.0,71,-99.99,,,0.00,344.239990,,2013-01-25 20:42:00,
2013-01-25 12:52:00,49.0,40.0,-100.00,NW,315,2.0,4.0,71,-99.99,,,0.00,344.239990,,2013-01-25 20:52:00,
2013-01-25 13:02:00,49.0,40.0,-100.00,NW,315,2.0,4.0,71,-99.99,,,0.00,344.239990,,2013-01-25 21:02:00,
2013-01-25 13:11:00,49.0,40.0,-100.00,NW,315,2.0,4.0,71,-99.99,,,0.00,344.239990,,2013-01-25 21:11:00,
2013-01-25 13:42:00,51.0,40.0,-100.00,NW,316,2.0,6.0,64,-99.99,,,0.00,413.980011,,2013-01-25 21:42:00,
2013-01-25 13:52:00,51.0,40.0,-100.00,NW,316,2.0,6.0,64,-99.99,,,0.00,413.980011,,2013-01-25 21:52:00,
2013-01-25 14:02:00,51.0,40.0,-100.00,NW,316,2.0,6.0,64,-99.99,,,0.00,413.980011,,2013-01-25 22:02:00,
2013-01-25 14:11:00,51.0,40.0,-100.00,NW,316,2.0,6.0,64,-99.99,,,0.00,413.980011,,2013-01-25 22:11:00,
2013-01-25 14:42:00,52.0,40.0,-100.00,NE,44,2.0,5.0,61,-99.99,,,0.00,246.850006,,2013-01-25 22:42:00,
2013-01-25 14:52:00,52.0,40.0,-100.00,NE,44,2.0,5.0,61,-99.99,,,0.00,246.850006,,2013-01-25 22:52:00,
2013-01-25 15:02:00,52.0,40.0,-100.00,NE,44,2.0,5.0,61,-99.99,,,0.00,246.850006,,2013-01-25 23:02:00,
2013-01-25 15:11:00,52.0,40.0,-100.00,NE,44,2.0,5.0,61,-99.99,,,0.00,246.850006,,2013-01-25 23:11:00,
2013-01-25 15:42:00,52.0,40.0,-100.00,NE,48,2.0,4.0,62,-99.99,,,0.00,122.730003,,2013-01-25 23:42:00,
2013-01-25 15:52:00,52.0,40.0,-100.00,NE,48,2.0,4.0,62,-99.99,,,0.00,122.730003,,2013-01-25 23:52:00,
2013-01-25 16:01:00,52.0,40.0,-100.00,NE,48,2.0,4.0,62,-99.99,,,0.00,122.730003,,2013-01-26 00:01:00,
2013-01-25 16:11:00,52.0,40.0,-100.00,NE,48,2.0,4.0,62,-99.99,,,0.00,122.730003,,2013-01-26 00:11:00,
2013-01-25 16:42:00,51.0,40.0,-100.00,NNW,348,6.0,9.0,67,-99.99,,,-99.99,43.349998,,2013-01-26 00:42:00,
2013-01-25 16:53:00,51.0,40.0,-100.00,NNW,348,6.0,9.0,67,-99.99,,,-99.99,43.349998,,2013-01-26 00:53:00,
2013-01-25 17:01:00,51.0,40.0,-100.00,NNW,348,6.0,9.0,67,-99.99,,,-99.99,43.349998,,2013-01-26 01:01:00,
2013-01-25 17:11:00,51.0,40.0,-100.00,NNW,348,6.0,9.0,67,-99.99,,,-99.99,43.349998,,2013-01-26 01:11:00,
2013-01-25 17:42:00,49.0,40.0,-100.00,NNE,19,3.0,5.0,71,-99.99,,,0.00,3.370000,,2013-01-26 01:42:00,
2013-01-25 17:52:00,49.0,40.0,-100.00,NNE,19,3.0,5.0,71,-99.99,,,0.00,3.370000,,2013-01-26 01:52:00,
2013-01-25 18:01:00,49.0,40.0,-100.00,NNE,19,3.0,5.0,71,-99.99,,,0.00,3.370000,,2013-01-26 02:01:00,
2013-01-25 18:11:00,49.0,40.0,-100.00,NNE,19,3.0,5.0,71,-99.99,,,0.00,3.370000,,2013-01-26 02:11:00,
2013-01-25 18:42:00,48.0,40.0,-100.00,ENE,71,2.0,4.0,75,-99.99,,,0.00,0.000000,,2013-01-26 02:42:00,
2013-01-25 18:52:00,48.0,40.0,-100.00,ENE,71,2.0,4.0,75,-99.99,,,0.00,0.000000,,2013-01-26 02:52:00,
2013-01-25 19:01:00,48.0,40.0,-100.00,ENE,71,2.0,4.0,75,-99.99,,,0.00,0.000000,,2013-01-26 03:01:00,
2013-01-25 19:11:00,48.0,40.0,-100.00,ENE,71,2.0,4.0,75,-99.99,,,0.00,0.000000,,2013-01-26 03:11:00,
2013-01-25 19:42:00,43.0,39.0,-100.00,SE,137,2.0,4.0,85,-99.99,,,0.00,0.000000,,2013-01-26 03:42:00,
2013-01-25 19:52:00,43.0,39.0,-100.00,SE,137,2.0,4.0,85,-99.99,,,0.00,0.000000,,2013-01-26 03:52:00,
2013-01-25 20:01:00,43.0,39.0,-100.00,SE,137,2.0,4.0,85,-99.99,,,0.00,0.000000,,2013-01-26 04:01:00,
2013-01-25 20:12:00,43.0,39.0,-100.00,SE,137,2.0,4.0,85,-99.99,,,0.00,0.000000,,2013-01-26 04:12:00,
2013-01-25 20:32:00,39.0,39.0,-100.00,WSW,257,3.0,5.0,96,-99.99,,,0.00,0.000000,,2013-01-26 04:32:00,
2013-01-25 20:42:00,39.0,39.0,-100.00,WSW,257,3.0,5.0,96,-99.99,,,0.00,0.000000,,2013-01-26 04:42:00,
2013-01-25 20:52:00,39.0,39.0,-100.00,WSW,257,3.0,5.0,96,-99.99,,,0.00,0.000000,,2013-01-26 04:52:00,
2013-01-25 21:03:00,39.0,39.0,-100.00,WSW,257,3.0,5.0,96,-99.99,,,0.00,0.000000,,2013-01-26 05:03:00,
2013-01-25 21:12:00,39.0,39.0,-100.00,WSW,257,3.0,5.0,96,-99.99,,,0.00,0.000000,,2013-01-26 05:12:00,
2013-01-25 21:41:00,40.0,38.0,-100.00,SW,235,0.0,2.0,92,-99.99,,,0.00,0.000000,,2013-01-26 05:41:00,
2013-01-25 21:52:00,40.0,38.0,-100.00,SW,235,0.0,2.0,92,-99.99,,,0.00,0.000000,,2013-01-26 05:52:00,
2013-01-25 22:02:00,40.0,38.0,-100.00,SW,235,0.0,2.0,92,-99.99,,,0.00,0.000000,,2013-01-26 06:02:00,
2013-01-25 22:11:00,40.0,38.0,-100.00,SW,235,0.0,2.0,92,-99.99,,,0.00,0.000000,,2013-01-26 06:11:00,
2013-01-25 22:41:00,42.0,40.0,-100.00,West,280,1.0,2.0,92,-99.99,,,0.00,0.000000,,2013-01-26 06:41:00,
2013-01-25 22:52:00,42.0,40.0,-100.00,West,280,1.0,2.0,92,-99.99,,,0.00,0.000000,,2013-01-26 06:52:00,
2013-01-25 23:01:00,42.0,40.0,-100.00,West,280,1.0,2.0,92,-99.99,,,0.00,0.000000,,2013-01-26 07:01:00,
2013-01-25 23:11:00,42.0,40.0,-100.00,West,280,1.0,2.0,92,-99.99,,,0.00,0.000000,,2013-01-26 07:11:00,
2013-01-25 23:41:00,39.0,38.0,-100.00,WSW,244,1.0,2.0,97,-99.99,,,0.00,0.000000,,2013-01-26 07:41:00,
2013-01-25 23:52:00,39.0,38.0,-100.00,WSW,244,1.0,2.0,97,-99.99,,,0.00,0.000000,,2013-01-26 07:52:00,